This is the latest recevied weather packets stored in our database for station/object K9ZOG. If no packets are shown the sender has not sent any weather packets the latest 10 day(s).
| Time | Temp. | Humidity | Pressure | Rain* | Wind** | Luminosity | Snow |
|---|---|---|---|---|---|---|---|
| 1777331653 | 18.89° C | 78% | 1005.2 hPa | 0 mm | - | 39 W/m² | - |
| 1777331352 | 18.89° C | 79% | 1005.3 hPa | 0 mm | - | 34 W/m² | - |
| 1777331053 | 18.89° C | 79% | 1005.3 hPa | 0 mm | - | 56 W/m² | - |
| 1777330753 | 18.89° C | 79% | 1005.2 hPa | 0 mm | - | 97 W/m² | - |
| 1777330453 | 18.89° C | 80% | 1005.3 hPa | 0 mm | - | 105 W/m² | - |
| 1777330153 | 18.89° C | 80% | 1005.5 hPa | 0 mm | - | 101 W/m² | - |
| 1777329852 | 18.89° C | 80% | 1005.6 hPa | 0 mm | - | 109 W/m² | - |
| 1777329553 | 18.89° C | 80% | 1005.5 hPa | 0 mm | - | 131 W/m² | - |
| 1777329254 | 18.33° C | 80% | 1005.6 hPa | 0 mm | - | 220 W/m² | - |
| 1777328953 | 18.33° C | 81% | 1005.6 hPa | 0 mm | - | 243 W/m² | - |
| 1777328652 | 18.33° C | 81% | 1005.3 hPa | 0 mm | - | 207 W/m² | - |
| 1777328353 | 18.33° C | 81% | 1005.2 hPa | 0 mm | - | 197 W/m² | - |
| 1777328052 | 18.33° C | 82% | 1005.2 hPa | 0 mm | - | 201 W/m² | - |
| 1777327753 | 17.78° C | 82% | 1005.1 hPa | 0 mm | - | 183 W/m² | - |
| 1777327454 | 17.78° C | 82% | 1005.3 hPa | 0 mm | - | 175 W/m² | - |
| 1777327153 | 17.78° C | 82% | 1005.2 hPa | 0 mm | - | 176 W/m² | - |
| 1777326855 | 17.78° C | 83% | 1005.4 hPa | 0 mm | - | 183 W/m² | - |
| 1777326554 | 17.78° C | 83% | 1005.3 hPa | 0 mm | - | 188 W/m² | - |
| 1777326253 | 17.22° C | 83% | 1005.4 hPa | 0 mm | - | 205 W/m² | - |
| 1777325952 | 17.22° C | 84% | 1005.4 hPa | 0.25 mm | - | 209 W/m² | - |
| 1777325653 | 17.22° C | 84% | 1005.7 hPa | 0.25 mm | - | 197 W/m² | - |
| 1777325352 | 17.22° C | 85% | 1005.5 hPa | 0.25 mm | - | 186 W/m² | - |
| 1777325053 | 16.67° C | 86% | 1005.6 hPa | 0.51 mm | - | 195 W/m² | - |
| 1777324753 | 16.67° C | 86% | 1005.4 hPa | 0.51 mm | - | 225 W/m² | - |
| 1777324453 | 16.67° C | 87% | 1005.4 hPa | 0.51 mm | - | 244 W/m² | - |
* Rain latest hour (hover to see other rain measurements)
** Current wind speed in m/s (hover to see current wind gust speed)